Location: *
(43.9905°S, 176.4941°W)
Time: 16:11:48
(UTC+00:00)

Cosmos 2315 Rocket - Pass Details

Date: 08 December 2019
Orbit: 965 x 1003 km, 82.9° (Epoch: 24 January)

Event Time Altitude Azimuth Distance (km) Brightness Sun altitude
Rises 08:51:04 0° 346° (NNW) 3,658 6.7 -13.2°
Reaches altitude 10° 08:53:35 10° 343° (NNW) 2,715 6.0 -13.5°
Maximum altitude 08:59:46 67° 260° (W) 1,055 4.4 -14.1°
Drops below altitude 10° 09:06:01 10° 177° (S) 2,740 7.1 -14.8°
Sets 09:08:35 0° 174° (S) 3,695 7.8 -15.1°
